QPF
0.00 0.00 0.00 0.00 0.00 0.00 0.00 0.00 0.00 0.00 0.00 0.00 0.00 0.00 0.00 0.00 0.00 0.00 0.00 0.00 0.00 0.00 0.00 0.00 0.00 0.00 0.00 0.00 0.00 0.00 0.00 0.01 0.01 0.01 0.02 0.02 0.02 0.02
0.00 0.00 0.00 0.00 0.00 0.00 0.00 0.00 0.00 0.00 0.00 0.00 0.00 0.00 0.00 0.00 0.00 0.00 0.00 0.00 0.00 0.00 0.00 0.00 0.00 0.00 0.00 0.00 0.00 0.01 0.01 0.01 0.01 0.01 0.01 0.02 0.02 0.02
0.00 0.00 0.00 0.00 0.00 0.00 0.00 0.00 0.00 0.00 0.00 0.00 0.00 0.00 0.00 0.00 0.00 0.00 0.00 0.00 0.00 0.00 0.00 0.00 0.01 0.01 0.01 0.01 0.01 0.01 0.01 0.01 0.01 0.01 0.02 0.02 0.02 0.03
0.00 0.00 0.00 0.00 0.00 0.00 0.00 0.00 0.00 0.00 0.00 0.00 0.00 0.00 0.00 0.00 0.00 0.00 0.00 0.00 0.00 0.00 0.00 0.00 0.00 0.01 0.01 0.01 0.01 0.01 0.01 0.01 0.01 0.02 0.02 0.02 0.02 0.03
0.00 0.00 0.00 0.00 0.00 0.00 0.00 0.00 0.00 0.00 0.00 0.01 0.00 0.00 0.00 0.00 0.00 0.00 0.00 0.00 0.00 0.00 0.00 0.00 0.00 0.01 0.01 0.01 0.01 0.01 0.02 0.02 0.02 0.02 0.02 0.02 0.02 0.02
0.00 0.00 0.00 0.00 0.00 0.00 0.00 0.00 0.00 0.01 0.01 0.01 0.00 0.00 0.00 0.00 0.01 0.01 0.00 0.00 0.00 0.00 0.00 0.00 0.00 0.00 0.01 0.01 0.02 0.02 0.02 0.02 0.02 0.02 0.02 0.02 0.02 0.02
0.00 0.00 0.00 0.01 0.01 0.01 0.01 0.01 0.01 0.02 0.02 0.02 0.01 0.01 0.01 0.01 0.01 0.00 0.00 0.00 0.00 0.00 0.00 0.00 0.00 0.00 0.00 0.00 0.01 0.02 0.02 0.02 0.02 0.02 0.02 0.02 0.01 0.01
0.01 0.01 0.00 0.01 0.01 0.02 0.03 0.03 0.04 0.04 0.05 0.04 0.04 0.02 0.01 0.00 0.01 0.01 0.01 0.01 0.01 0.00 0.00 0.00 0.00 0.00 0.00 0.00 0.00 0.00 0.01 0.02 0.02 0.02 0.02 0.02 0.02 0.01
0.01 0.01 0.01 0.01 0.01 0.01 0.01 0.02 0.03 0.04 0.05 0.06 0.06 0.03 0.02 0.01 0.02 0.03 0.02 0.01 0.00 0.00 0.00 0.00 0.00 0.00 0.00 0.00 0.00 0.00 0.00 0.01 0.02 0.02 0.02 0.02 0.02 0.02
0.00 0.01 0.01 0.01 0.01 0.01 0.01 0.01 0.01 0.01 0.02 0.04 0.05 0.03 0.02 0.02 0.03 0.03 0.03 0.03 0.02 0.01 0.01 0.01 0.00 0.00 0.00 0.00 0.00 0.00 0.00 0.00 0.01 0.01 0.01 0.02 0.02 0.02
0.00 0.01 0.01 0.01 0.01 0.02 0.02 0.02 0.01 0.01 0.01 0.02 0.03 0.03 0.04 0.05 0.05 0.06 0.07 0.08 0.05 0.01 0.01 0.01 0.00 0.00 0.00 0.00 0.00 0.00 0.00 0.00 0.00 0.01 0.01 0.01 0.01 0.02
0.01 0.01 0.01 0.01 0.02 0.03 0.03 0.03 0.03 0.01 0.01 0.01 0.01 0.02 0.03 0.05 0.08 0.09 0.08 0.07 0.04 0.02 0.01 0.01 0.01 0.01 0.01 0.00 0.00 0.00 0.00 0.00 0.00 0.01 0.01 0.01 0.01 0.01
0.02 0.02 0.01 0.02 0.03 0.03 0.04 0.04 0.04 0.03 0.03 0.03 0.03 0.02 0.02 0.03 0.04 0.08 0.09 0.07 0.05 0.03 0.01 0.01 0.02 0.02 0.02 0.01 0.00 0.00 0.00 0.00 0.00 0.00 0.01 0.01 0.01 0.01
0.03 0.02 0.01 0.02 0.03 0.04 0.04 0.04 0.05 0.06 0.06 0.06 0.05 0.04 0.02 0.02 0.02 0.03 0.06 0.07 0.04 0.02 0.01 0.02 0.03 0.02 0.02 0.02 0.01 0.00 0.00 0.00 0.00 0.00 0.00 0.00 0.01 0.01
0.02 0.03 0.03 0.04 0.04 0.03 0.03 0.03 0.04 0.04 0.05 0.05 0.04 0.03 0.01 0.01 0.01 0.02 0.03 0.06 0.07 0.05 0.03 0.03 0.03 0.02 0.03 0.02 0.01 0.00 0.00 0.00 0.00 0.00 0.00 0.00 0.00 0.01
0.02 0.02 0.02 0.02 0.02 0.01 0.01 0.01 0.02 0.02 0.03 0.04 0.03 0.02 0.02 0.02 0.03 0.03 0.04 0.05 0.07 0.06 0.04 0.03 0.03 0.03 0.04 0.02 0.02 0.01 0.00 0.00 0.00 0.00 0.00 0.00 0.00 0.00
0.04 0.03 0.02 0.02 0.01 0.01 0.01 0.01 0.01 0.01 0.02 0.03 0.03 0.03 0.03 0.03 0.03 0.03 0.04 0.04 0.05 0.03 0.03 0.04 0.05 0.05 0.04 0.03 0.03 0.02 0.01 0.00 0.00 0.00 0.00 0.01 0.00 0.00
0.03 0.02 0.02 0.01 0.01 0.02 0.02 0.02 0.01 0.01 0.02 0.03 0.03 0.03 0.03 0.03 0.03 0.03 0.04 0.04 0.03 0.02 0.02 0.03 0.05 0.07 0.07 0.05 0.03 0.01 0.01 0.01 0.00 0.01 0.01 0.01 0.00 0.00
0.02 0.01 0.01 0.01 0.01 0.02 0.02 0.02 0.02 0.01 0.02 0.03 0.03 0.03 0.03 0.03 0.03 0.03 0.03 0.03 0.03 0.02 0.03 0.03 0.04 0.04 0.04 0.03 0.01 0.01 0.01 0.01 0.01 0.01 0.01 0.01 0.00 0.00
0.01 0.01 0.01 0.01 0.01 0.02 0.02 0.02 0.02 0.02 0.02 0.02 0.03 0.03 0.03 0.03 0.03 0.02 0.02 0.02 0.02 0.03 0.03 0.03 0.02 0.02 0.02 0.01 0.01 0.01 0.00 0.00 0.01 0.01 0.01 0.00 0.00 0.00
0.01 0.01 0.01 0.01 0.01 0.02 0.02 0.02 0.02 0.02 0.02 0.02 0.02 0.02 0.02 0.03 0.02 0.02 0.02 0.02 0.03 0.03 0.02 0.01 0.01 0.01 0.02 0.04 0.04 0.01 0.01 0.00 0.00 0.01 0.01 0.02 0.02 0.01
0.01 0.01 0.01 0.01 0.02 0.02 0.02 0.02 0.02 0.02 0.01 0.02 0.02 0.02 0.02 0.02 0.02 0.01 0.02 0.02 0.02 0.01 0.01 0.01 0.02 0.03 0.03 0.03 0.02 0.01 0.01 0.01 0.01 0.01 0.01 0.01 0.02 0.02
0.01 0.01 0.01 0.01 0.01 0.02 0.02 0.02 0.02 0.02 0.01 0.01 0.02 0.01 0.02 0.02 0.02 0.02 0.02 0.02 0.02 0.02 0.02 0.02 0.02 0.02 0.02 0.01 0.01 0.01 0.01 0.01 0.01 0.01 0.01 0.00 0.00 0.01
MSLP
1012.93 1012.77 1012.59 1012.36 1012.05 1011.65 1011.17 1010.63 1010.06 1009.51 1009.02 1008.62 1008.35 1008.22 1008.22 1008.32 1008.49 1008.69 1008.89 1009.05 1009.15 1009.19 1009.18 1009.16 1009.14 1009.17 1009.27 1009.47 1009.78 1010.19 1010.68 1011.23 1011.81 1012.39 1012.93 1013.42 1013.85 1014.23
1011.99 1011.82 1011.66 1011.46 1011.21 1010.87 1010.46 1009.98 1009.46 1008.93 1008.45 1008.04 1007.74 1007.56 1007.51 1007.56 1007.70 1007.87 1008.05 1008.20 1008.30 1008.35 1008.35 1008.32 1008.30 1008.32 1008.41 1008.60 1008.89 1009.30 1009.80 1010.36 1010.95 1011.55 1012.11 1012.62 1013.06 1013.45
1011.10 1010.90 1010.72 1010.54 1010.32 1010.04 1009.69 1009.27 1008.81 1008.33 1007.88 1007.48 1007.16 1006.96 1006.87 1006.88 1006.96 1007.10 1007.25 1007.38 1007.48 1007.53 1007.53 1007.51 1007.49 1007.52 1007.61 1007.79 1008.08 1008.48 1008.97 1009.53 1010.12 1010.72 1011.29 1011.81 1012.26 1012.65
1010.27 1010.02 1009.81 1009.62 1009.41 1009.16 1008.86 1008.51 1008.10 1007.68 1007.27 1006.89 1006.58 1006.37 1006.25 1006.22 1006.26 1006.36 1006.47 1006.58 1006.66 1006.71 1006.72 1006.71 1006.71 1006.74 1006.84 1007.02 1007.31 1007.70 1008.17 1008.72 1009.30 1009.89 1010.46 1010.98 1011.44 1011.85
1009.49 1009.19 1008.94 1008.72 1008.50 1008.26 1007.99 1007.67 1007.33 1006.95 1006.59 1006.24 1005.96 1005.74 1005.60 1005.54 1005.55 1005.61 1005.69 1005.77 1005.84 1005.88 1005.90 1005.91 1005.92 1005.97 1006.08 1006.27 1006.55 1006.93 1007.39 1007.92 1008.48 1009.06 1009.62 1010.14 1010.62 1011.04
1008.73 1008.39 1008.09 1007.83 1007.58 1007.33 1007.06 1006.77 1006.45 1006.13 1005.80 1005.49 1005.23 1005.03 1004.89 1004.82 1004.80 1004.83 1004.89 1004.95 1005.01 1005.05 1005.07 1005.09 1005.13 1005.20 1005.32 1005.52 1005.80 1006.17 1006.61 1007.12 1007.66 1008.22 1008.78 1009.30 1009.79 1010.25
1007.97 1007.58 1007.24 1006.92 1006.63 1006.35 1006.06 1005.77 1005.48 1005.18 1004.89 1004.62 1004.39 1004.21 1004.08 1004.01 1003.99 1004.00 1004.04 1004.10 1004.15 1004.19 1004.23 1004.28 1004.34 1004.43 1004.57 1004.78 1005.06 1005.42 1005.85 1006.33 1006.86 1007.40 1007.94 1008.47 1008.97 1009.46
1007.17 1006.74 1006.35 1005.98 1005.64 1005.31 1005.00 1004.69 1004.39 1004.11 1003.85 1003.62 1003.42 1003.27 1003.16 1003.11 1003.09 1003.11 1003.15 1003.21 1003.27 1003.33 1003.40 1003.47 1003.56 1003.68 1003.84 1004.07 1004.35 1004.71 1005.12 1005.58 1006.08 1006.60 1007.13 1007.65 1008.17 1008.67
1006.32 1005.85 1005.41 1004.99 1004.59 1004.21 1003.86 1003.53 1003.22 1002.94 1002.70 1002.49 1002.33 1002.21 1002.14 1002.11 1002.12 1002.16 1002.22 1002.30 1002.38 1002.48 1002.57 1002.68 1002.81 1002.96 1003.16 1003.40 1003.69 1004.04 1004.44 1004.88 1005.35 1005.85 1006.36 1006.87 1007.39 1007.89
1005.42 1004.92 1004.43 1003.95 1003.50 1003.07 1002.67 1002.31 1001.99 1001.71 1001.48 1001.30 1001.16 1001.08 1001.04 1001.05 1001.09 1001.16 1001.26 1001.38 1001.50 1001.64 1001.78 1001.93 1002.11 1002.30 1002.52 1002.79 1003.09 1003.43 1003.81 1004.23 1004.68 1005.15 1005.63 1006.13 1006.63 1007.12
1004.51 1003.96 1003.43 1002.91 1002.40 1001.93 1001.49 1001.10 1000.76 1000.47 1000.25 1000.07 999.96 999.91 999.90 999.95 1000.03 1000.15 1000.29 1000.46 1000.64 1000.83 1001.03 1001.24 1001.46 1001.69 1001.95 1002.23 1002.54 1002.88 1003.25 1003.64 1004.06 1004.50 1004.95 1005.42 1005.89 1006.37
1003.63 1003.05 1002.47 1001.91 1001.37 1000.85 1000.38 999.96 999.60 999.30 999.06 998.89 998.80 998.76 998.78 998.86 998.98 999.15 999.34 999.56 999.80 1000.05 1000.31 1000.58 1000.85 1001.13 1001.42 1001.72 1002.04 1002.37 1002.72 1003.09 1003.47 1003.88 1004.30 1004.73 1005.17 1005.62
1002.85 1002.23 1001.62 1001.03 1000.45 999.91 999.41 998.96 998.57 998.25 998.00 997.82 997.71 997.68 997.72 997.82 997.97 998.18 998.42 998.70 999.00 999.31 999.64 999.96 1000.28 1000.60 1000.92 1001.23 1001.55 1001.87 1002.20 1002.54 1002.89 1003.27 1003.65 1004.06 1004.47 1004.88
1002.22 1001.58 1000.94 1000.32 999.72 999.15 998.62 998.14 997.72 997.37 997.09 996.89 996.76 996.72 996.76 996.86 997.04 997.27 997.56 997.88 998.24 998.61 998.98 999.36 999.72 1000.07 1000.41 1000.73 1001.04 1001.34 1001.65 1001.97 1002.29 1002.64 1003.00 1003.37 1003.76 1004.14
1001.77 1001.11 1000.46 999.82 999.19 998.60 998.04 997.53 997.08 996.69 996.37 996.13 995.97 995.90 995.92 996.01 996.19 996.44 996.75 997.11 997.51 997.93 998.35 998.76 999.15 999.53 999.87 1000.19 1000.49 1000.78 1001.07 1001.36 1001.66 1001.98 1002.32 1002.67 1003.03 1003.39
1001.51 1000.84 1000.18 999.52 998.88 998.26 997.68 997.13 996.64 996.20 995.84 995.55 995.34 995.23 995.21 995.29 995.45 995.70 996.02 996.40 996.82 997.27 997.72 998.15 998.57 998.95 999.30 999.61 999.90 1000.17 1000.43 1000.70 1000.98 1001.28 1001.60 1001.93 1002.27 1002.61
1001.41 1000.74 1000.07 999.41 998.75 998.11 997.49 996.91 996.37 995.89 995.47 995.12 994.86 994.70 994.63 994.67 994.81 995.04 995.36 995.74 996.17 996.62 997.09 997.54 997.96 998.35 998.69 999.00 999.27 999.53 999.77 1000.02 1000.28 1000.55 1000.85 1001.15 1001.47 1001.77
1001.42 1000.76 1000.09 999.41 998.74 998.08 997.44 996.82 996.25 995.72 995.24 994.84 994.52 994.30 994.18 994.17 994.27 994.46 994.75 995.12 995.54 995.99 996.46 996.91 997.33 997.72 998.06 998.36 998.63 998.87 999.10 999.33 999.56 999.81 1000.08 1000.35 1000.61 1000.87
1001.48 1000.82 1000.16 999.48 998.80 998.13 997.46 996.82 996.21 995.64 995.12 994.66 994.29 994.01 993.83 993.76 993.80 993.95 994.20 994.53 994.93 995.37 995.82 996.27 996.69 997.07 997.42 997.72 997.99 998.22 998.44 998.66 998.87 999.09 999.30 999.52 999.72 999.90
1001.51 1000.87 1000.21 999.55 998.87 998.19 997.52 996.86 996.23 995.63 995.07 994.57 994.14 993.80 993.55 993.42 993.40 993.49 993.68 993.97 994.33 994.74 995.17 995.61 996.03 996.42 996.78 997.09 997.37 997.61 997.83 998.03 998.21 998.38 998.54 998.68 998.79 998.87
1001.48 1000.86 1000.23 999.57 998.91 998.25 997.58 996.93 996.28 995.66 995.07 994.53 994.05 993.65 993.34 993.13 993.04 993.05 993.18 993.41 993.72 994.09 994.50 994.93 995.36 995.76 996.13 996.47 996.77 997.03 997.25 997.44 997.59 997.72 997.80 997.85 997.85 997.80
1001.35 1000.77 1000.17 999.55 998.92 998.28 997.63 996.99 996.35 995.72 995.10 994.53 994.00 993.53 993.15 992.87 992.69 992.63 992.69 992.85 993.10 993.43 993.82 994.24 994.66 995.09 995.49 995.85 996.18 996.46 996.69 996.87 997.00 997.07 997.07 997.02 996.90 996.72
1001.13 1000.59 1000.04 999.46 998.87 998.27 997.66 997.03 996.40 995.76 995.13 994.52 993.94 993.42 992.97 992.61 992.35 992.21 992.18 992.27 992.47 992.76 993.12 993.52 993.96 994.40 994.83 995.23 995.58 995.89 996.13 996.30 996.39 996.41 996.34 996.19 995.96 995.66
Thickness
5494 5487 5482 5478 5471 5466 5462 5457 5453 5463 5484 5490 5482 5478 5473 5468 5466 5463 5464 5467 5467 5467 5468 5469 5469 5469 5470 5470 5471 5471 5471 5470 5469 5468 5467 5466 5466 5465
5475 5469 5464 5459 5453 5447 5442 5438 5433 5433 5448 5470 5460 5453 5450 5448 5445 5443 5445 5447 5449 5451 5453 5454 5455 5455 5456 5456 5457 5457 5457 5456 5456 5455 5454 5454 5454 5453
5457 5451 5446 5438 5433 5429 5424 5420 5416 5412 5418 5444 5437 5431 5429 5429 5427 5426 5427 5429 5433 5435 5436 5438 5439 5440 5441 5442 5443 5443 5444 5443 5443 5443 5442 5442 5442 5443
5439 5432 5428 5421 5416 5411 5407 5404 5401 5398 5398 5413 5421 5413 5411 5411 5410 5410 5411 5413 5416 5419 5420 5422 5424 5426 5427 5428 5429 5430 5431 5431 5430 5430 5430 5430 5430 5430
5422 5416 5411 5404 5401 5397 5393 5390 5388 5386 5384 5389 5400 5396 5394 5394 5393 5395 5396 5398 5401 5404 5405 5407 5409 5411 5413 5415 5416 5417 5418 5418 5418 5417 5417 5417 5418 5418
5405 5400 5395 5390 5387 5384 5381 5379 5375 5373 5373 5374 5380 5382 5381 5380 5378 5381 5383 5384 5387 5389 5392 5394 5396 5398 5401 5403 5404 5404 5405 5405 5405 5405 5404 5404 5405 5405
5393 5388 5385 5381 5377 5374 5371 5368 5365 5363 5363 5364 5368 5369 5371 5369 5369 5370 5371 5374 5377 5377 5379 5382 5384 5387 5389 5390 5391 5392 5392 5392 5393 5393 5393 5392 5392 5392
5384 5381 5378 5375 5372 5369 5366 5364 5361 5357 5356 5356 5359 5361 5364 5362 5361 5360 5361 5362 5367 5369 5367 5372 5372 5375 5377 5378 5380 5380 5380 5380 5380 5381 5380 5380 5380 5380
5376 5374 5371 5368 5365 5362 5360 5358 5357 5355 5354 5352 5353 5355 5355 5356 5353 5353 5352 5353 5357 5358 5357 5361 5362 5364 5365 5366 5366 5367 5367 5368 5368 5368 5367 5367 5367 5368
5367 5365 5362 5361 5357 5355 5353 5351 5350 5349 5348 5347 5347 5348 5348 5347 5346 5345 5345 5345 5346 5346 5344 5347 5351 5352 5352 5353 5354 5354 5354 5354 5355 5355 5355 5355 5355 5355
5360 5357 5355 5353 5352 5350 5348 5347 5347 5346 5345 5344 5344 5343 5343 5342 5340 5337 5336 5335 5339 5339 5336 5335 5338 5339 5340 5342 5342 5341 5341 5342 5342 5342 5342 5342 5342 5342
5353 5351 5349 5348 5347 5346 5344 5343 5343 5343 5341 5340 5339 5339 5338 5337 5336 5333 5331 5329 5331 5333 5332 5326 5326 5324 5326 5331 5330 5330 5329 5330 5330 5330 5331 5330 5330 5329
5346 5346 5344 5343 5342 5341 5339 5338 5338 5337 5336 5335 5335 5334 5332 5330 5328 5327 5324 5322 5322 5323 5323 5317 5316 5314 5314 5319 5319 5318 5318 5319 5319 5319 5319 5319 5319 5319
5339 5339 5339 5338 5337 5336 5335 5334 5333 5332 5331 5329 5329 5328 5327 5325 5323 5320 5317 5314 5313 5312 5310 5306 5305 5304 5303 5304 5307 5308 5306 5306 5306 5308 5309 5309 5308 5309
5333 5333 5333 5332 5331 5330 5330 5328 5326 5324 5323 5322 5322 5322 5320 5318 5315 5312 5309 5306 5303 5301 5298 5295 5293 5292 5291 5293 5295 5296 5295 5294 5294 5295 5297 5298 5299 5300
5327 5327 5326 5326 5324 5323 5322 5321 5319 5317 5316 5315 5315 5314 5312 5309 5307 5304 5302 5299 5296 5294 5289 5285 5282 5281 5280 5281 5282 5284 5284 5283 5284 5283 5284 5286 5288 5290
5322 5322 5322 5320 5319 5317 5315 5314 5312 5310 5308 5307 5306 5305 5303 5301 5299 5296 5293 5291 5289 5287 5283 5277 5273 5270 5270 5270 5272 5273 5274 5274 5274 5273 5273 5276 5279 5281
5315 5315 5314 5313 5311 5309 5308 5307 5305 5303 5301 5300 5299 5297 5296 5294 5292 5289 5286 5283 5282 5280 5277 5272 5266 5262 5260 5261 5262 5264 5264 5265 5265 5264 5264 5267 5272 5274
5308 5307 5306 5304 5303 5301 5300 5298 5298 5297 5294 5293 5292 5291 5289 5288 5285 5283 5280 5277 5275 5273 5270 5265 5261 5258 5259 5261 5262 5256 5257 5257 5256 5256 5257 5259 5264 5267
5301 5300 5298 5297 5296 5294 5293 5292 5291 5290 5289 5287 5286 5285 5283 5281 5279 5277 5275 5272 5270 5267 5264 5260 5257 5255 5256 5258 5257 5254 5249 5249 5249 5250 5251 5252 5255 5257
5296 5294 5293 5291 5290 5288 5287 5286 5286 5285 5284 5282 5281 5279 5277 5275 5273 5271 5269 5266 5263 5261 5259 5257 5254 5250 5247 5245 5246 5247 5245 5242 5242 5242 5243 5243 5246 5249
5290 5289 5288 5286 5284 5283 5282 5281 5281 5280 5278 5277 5276 5274 5271 5269 5267 5264 5262 5260 5257 5255 5253 5250 5245 5241 5239 5239 5241 5242 5239 5237 5235 5235 5235 5236 5238 5245
5285 5284 5282 5281 5279 5278 5277 5277 5275 5275 5274 5272 5270 5268 5266 5263 5261 5259 5256 5253 5251 5248 5245 5242 5238 5236 5234 5233 5234 5234 5233 5231 5230 5230 5233 5233 5233 5236